EW8354 Weather Reports


Display with metric or nautical units.
time (UTC)temp
F
wind
direction
speed
MPH
gust
MPH
rain 1hr
in
rain 24hr
in
rain mn
in
humidity
%
barometer
mb
20260507134531 72 205 7.0 15.0 0.00 0.00 0.00 46 1008.3
20260507133028 72 248 7.0 16.0 0.00 0.00 0.00 46 1008.5
20260507131531 71 255 8.0 17.0 0.00 0.00 0.00 48 1008.6
20260507130026 72 238 8.0 16.0 0.00 0.00 0.00 47 1008.6
20260507124531 71 215 6.0 16.0 0.00 0.00 0.00 47 1008.6
20260507123028 71 201 9.0 18.0 0.00 0.00 0.00 50 1008.8
20260507121522 71 244 7.0 15.0 0.00 0.00 0.00 49 1008.9
20260507120026 70 236 8.0 16.0 0.00 0.00 0.00 52 1009.1
20260507114521 71 249 7.0 12.0 0.00 0.00 0.00 50 1009.1
20260507113019 71 228 7.0 13.0 0.00 0.00 0.00 50 1009.2
20260507111516 70 198 10.0 16.0 0.00 0.00 0.00 52 1009.3
20260507110016 70 204 8.0 17.0 0.00 0.00 0.00 52 1009.4
20260507104512 68 201 5.0 14.0 0.00 0.00 0.00 58 1009.3
20260507103012 69 236 4.0 12.0 0.00 0.00 0.00 58 1009.4
20260507101512 67 206 5.0 12.0 0.00 0.00 0.00 60 1009.5
20260507100007 66 182 5.0 13.0 0.00 0.00 0.00 62 1009.7
20260507094504 67 261 6.0 15.0 0.00 0.00 0.00 63 1009.7
20260507093100 65 178 6.0 16.0 0.00 0.00 0.00 66 1009.6
20260507091557 65 174 6.0 13.0 0.00 0.00 0.00 69 1009.6
20260507090059 64 183 5.0 15.0 0.00 0.00 0.00 70 1009.6
20260507084558 63 207 6.0 14.0 0.00 0.00 0.00 71 1009.6
20260507083052 63 204 7.0 13.0 0.00 0.00 0.00 72 1009.5
20260507081548 63 167 6.0 12.0 0.00 0.00 0.00 74 1009.4
20260507080053 62 194 6.0 12.0 0.00 0.00 0.00 75 1009.4
20260507074541 61 152 4.0 12.0 0.00 0.00 0.00 76 1009.3
20260507073038 60 184 4.0 10.0 0.00 0.00 0.00 75 1009.1
20260507071536 60 141 2.0 7.0 0.00 0.00 0.00 76 1009.0
20260507070035 59 137 2.0 7.0 0.00 0.00 0.00 78 1008.9
20260507064532 58 139 1.0 5.0 0.00 0.00 0.00 80 1008.9
20260507063029 57 147 2.0 5.0 0.00 0.00 0.00 81 1008.9
20260507061527 56 111 1.0 3.0 0.00 0.00 0.00 81 1008.7
20260507060026 56 145 0.0 2.0 0.00 0.00 0.00 81 1008.6
20260507054534 56 197 0.0 2.0 0.00 0.00 0.00 81 1008.4
20260507053023 56 201 0.0 0.0 0.00 0.00 0.00 80 1008.4
20260507051521 56 201 0.0 0.0 0.00 0.00 0.00 80 1008.5
20260507050025 56 201 0.0 0.0 0.00 0.00 0.00 80 1008.4
20260507044518 57 201 0.0 0.0 0.00 0.00 0.00 79 1008.2
20260507043023 57 201 0.0 3.0 0.00 0.00 0.00 79 1008.1
20260507041517 57 206 0.0 4.0 0.00 0.00 0.00 79 1007.9
20260507040016 57 153 1.0 7.0 0.00 0.00 0.00 78 1007.8
20260507034515 57 179 1.0 3.0 0.00 0.00 0.00 78 1007.8
20260507033014 57 182 1.0 4.0 0.00 0.00 0.00 77 1007.8
20260507031513 57 195 0.0 3.0 0.00 0.00 0.00 77 1007.9
20260507030013 57 194 0.0 4.0 0.00 0.00 0.00 76 1007.8
20260507024513 58 186 3.0 7.0 0.00 0.00 0.00 76 1007.7
20260507023011 58 247 2.0 5.0 0.00 0.00 0.00 75 1007.6
20260507021510 58 188 3.0 9.0 0.00 0.00 0.00 75 1007.6
20260507020008 58 191 4.0 9.0 0.00 0.00 0.00 74 1007.7
20260507014506 58 197 5.0 10.0 0.00 0.00 0.00 74 1007.7
20260507013012 58 212 3.0 7.0 0.00 0.00 0.00 74 1007.8
20260507011506 58 199 4.0 10.0 0.00 0.00 0.00 74 1008.0
20260507010104 58 221 2.0 6.0 0.00 0.00 0.00 73 1008.1
20260507004606 59 186 3.0 6.0 0.00 0.00 0.00 74 1008.2
20260507003058 58 194 2.0 6.0 0.00 0.00 0.00 73 1008.3
20260507001556 59 199 3.0 6.0 0.00 0.00 0.00 73 1008.3
20260507000054 59 206 4.0 8.0 0.00 0.00 0.00 73 1008.5
20260506234552 60 205 2.0 5.0 0.00 0.00 0.00 73 1008.6
20260506233103 60 196 3.0 6.0 0.00 0.00 0.00 74 1008.7
20260506231555 60 237 3.0 6.0 0.00 0.00 0.00 74 1008.6
20260506230049 60 249 3.0 7.0 0.00 0.00 0.00 72 1008.6
20260506224545 60 235 3.0 7.0 0.00 0.00 0.00 68 1008.7
20260506223046 60 243 2.0 6.0 0.00 0.00 0.00 64 1008.7
20260506221541 61 245 2.0 6.0 0.00 0.00 0.00 61 1008.7
20260506220041 61 238 4.0 7.0 0.00 0.00 0.00 60 1008.5
20260506214543 61 247 2.0 6.0 0.00 0.00 0.00 59 1008.6
20260506213056 61 251 4.0 6.0 0.00 0.00 0.00 58 1008.5
20260506211540 62 246 4.0 9.0 0.00 0.00 0.00 57 1008.2
20260506210040 63 255 5.0 10.0 0.00 0.00 0.00 55 1008.1
20260506204539 63 276 5.0 10.0 0.00 0.00 0.00 55 1007.9
20260506203038 63 267 5.0 8.0 0.00 0.00 0.00 55 1007.8
20260506201541 63 269 6.0 9.0 0.00 0.00 0.00 54 1007.7
20260506200038 64 263 5.0 10.0 0.00 0.00 0.00 53 1007.7
20260506194537 66 259 4.0 8.0 0.00 0.00 0.00 50 1007.5
20260506193038 67 278 6.0 11.0 0.00 0.00 0.00 47 1007.3
20260506191540 67 268 6.0 10.0 0.00 0.00 0.00 48 1007.2
20260506190036 69 259 8.0 14.0 0.00 0.00 0.00 46 1007.1
20260506184547 70 270 7.0 14.0 0.00 0.00 0.00 43 1007.0
20260506183050 71 254 8.0 14.0 0.00 0.00 0.00 43 1007.0
20260506181558 71 245 7.0 14.0 0.00 0.00 0.00 41 1006.9
20260506180036 72 280 8.0 14.0 0.00 0.00 0.00 40 1007.0
20260506174533 73 242 6.0 14.0 0.00 0.00 0.00 37 1007.1
20260506173044 74 215 7.0 14.0 0.00 0.00 0.00 35 1007.0
20260506171532 75 240 8.0 15.0 0.00 0.00 0.00 35 1007.1
20260506170033 75 251 7.0 14.0 0.00 0.00 0.00 35 1007.1
20260506164536 75 253 7.0 15.0 0.00 0.00 0.00 35 1007.1
20260506163035 76 267 8.0 16.0 0.00 0.00 0.00 34 1007.3
20260506161530 79 199 4.0 9.0 0.00 0.00 0.00 26 1007.1
20260506160030 80 323 1.0 7.0 0.00 0.00 0.00 25 1007.1
20260506154527 79 240 3.0 9.0 0.00 0.00 0.00 27 1007.2
20260506153025 80 205 2.0 5.0 0.00 0.00 0.00 26 1007.5
20260506151522 78 190 4.0 8.0 0.00 0.00 0.00 28 1007.6
20260506150021 77 117 2.0 8.0 0.00 0.00 0.00 30 1007.9
20260506144521 78 184 1.0 6.0 0.00 0.00 0.00 29 1008.1
20260506143018 78 177 4.0 12.0 0.00 0.00 0.00 29 1008.4
20260506141514 79 226 1.0 5.0 0.00 0.00 0.00 28 1008.6